DIRECTV 12 (36131 NORAD) Tracking and Keplerian Element Data

This shows tracking and keplerian element data for the satellite.

Feedback or suggestion? Click here.




ElementValue
Catalog36131
NameDIRECTV 12
Epoch Orbit3290
Epoch Day349.65257275
Epoch Year2018
RAAN189.4619
Inclination0.0498
Eccentricity4.94E-05
Argument of Perigee334.4881
Mean Anonmoly52.4505
Mean Motion1.00270581
Decay Rate-9E-07
L11 36131U 09075A 18349.65257275 -.00000090 00000-0 00000+0 0 9998
L22 36131 0.0498 189.4619 0000494 334.4881 52.4505 1.00270581 32902

Live tracking and technical data element details for DIRECTV 12 (NORAD 36131). DIRECTV 12 can be tracked NOW for your location showing map with azimuth and elevation plus other details from your city location.

Track the satellite on the map from your city or location and see movement details for azimuth, elevation, latitude, longitude, range, height, and movement on the map or in text.







IsCatalogInMostPopularTable: catalog: 36131, numindb: 67
Update: records affected: 1



GetName: 36131 DIRECTV 12

Hit Count: updated at: Sun, 16 Dec 2018 10:57:48 GMT